Location: Katowice
(50.2611°N, 19.0242°E)
Time: 00:39:53
(UTC+02:00)

A-11 Canister half - Pass Details

Date: 25 July 2019
Orbit: 1526 x 1683 km, 47.3° (Epoch: 21 August)

Event Time Altitude Azimuth Distance (km) Brightness Sun altitude
Rises 18:38:37 0° 195° (SSW) 4,922 11.7 16.8°
Reaches altitude 10° 18:42:30 10° 183° (S) 3,932 11.1 16.2°
Maximum altitude 18:50:10 26° 133° (SE) 2,870 10.1 15.0°
Drops below altitude 10° 18:57:44 10° 83° (E) 3,882 10.6 13.8°
Sets 19:01:31 0° 71° (ENE) 4,848 11.1 13.2°
